| time (UTC) | temp F | wind direction | speed MPH | gust MPH | rain 1hr in | rain 24hr in | rain mn in | humidity % | barometer mb |
| 20260902031326 | 79 | 221 | 0.0 | 3.0 | 0.00 | 0.00 | 0.00 | 83 | 1015.6 |
| 20260902030827 | 79 | 238 | 2.0 | 3.0 | 0.00 | 0.00 | 0.00 | 83 | 1015.7 |
| 20260902025826 | 79 | 217 | 1.0 | 3.0 | 0.00 | 0.00 | 0.00 | 82 | 1015.8 |
| 20260902024825 | 80 | 198 | 1.0 | 5.0 | 0.00 | 0.00 | 0.00 | 81 | 1015.8 |
| 20260902023825 | 80 | 195 | 2.0 | 4.0 | 0.00 | 0.00 | 0.00 | 81 | 1015.8 |
| 20260902023325 | 80 | 223 | 1.0 | 4.0 | 0.00 | 0.00 | 0.00 | 81 | 1015.8 |
| 20260902022825 | 80 | 215 | 1.0 | 4.0 | 0.00 | 0.00 | 0.00 | 81 | 1015.8 |
| 20260902022325 | 80 | 217 | 2.0 | 4.0 | 0.00 | 0.00 | 0.00 | 82 | 1015.7 |
| 20260902021825 | 80 | 233 | 2.0 | 5.0 | 0.00 | 0.00 | 0.00 | 82 | 1015.8 |
| 20260902021324 | 80 | 257 | 2.0 | 5.0 | 0.00 | 0.00 | 0.00 | 82 | 1015.8 |
| 20260902020324 | 80 | 204 | 3.0 | 4.0 | 0.00 | 0.00 | 0.00 | 82 | 1015.7 |
| 20260902015824 | 80 | 211 | 1.0 | 3.0 | 0.00 | 0.00 | 0.00 | 82 | 1015.6 |
| 20260902015324 | 80 | 209 | 0.0 | 3.0 | 0.00 | 0.00 | 0.00 | 82 | 1015.5 |
| 20260902014824 | 80 | 215 | 0.0 | 3.0 | 0.00 | 0.00 | 0.00 | 82 | 1015.5 |
| 20260902014324 | 80 | 211 | 0.0 | 4.0 | 0.00 | 0.00 | 0.00 | 82 | 1015.3 |
| 20260902013823 | 80 | 207 | 2.0 | 4.0 | 0.00 | 0.00 | 0.00 | 82 | 1015.4 |
| 20260902013323 | 80 | 207 | 1.0 | 3.0 | 0.00 | 0.00 | 0.00 | 82 | 1015.4 |
| 20260902012323 | 81 | 217 | 1.0 | 3.0 | 0.00 | 0.00 | 0.00 | 81 | 1015.1 |
| 20260902011823 | 81 | 243 | 1.0 | 3.0 | 0.00 | 0.00 | 0.00 | 81 | 1015.1 |
| 20260902011322 | 81 | 232 | 1.0 | 3.0 | 0.00 | 0.00 | 0.00 | 81 | 1015.1 |
| 20260902010823 | 82 | 239 | 1.0 | 5.0 | 0.00 | 0.00 | 0.00 | 80 | 1015.1 |
| 20260902010352 | 82 | 197 | 1.0 | 5.0 | 0.00 | 0.00 | 0.00 | 80 | 1015.0 |
| 20260902005822 | 82 | 219 | 2.0 | 5.0 | 0.00 | 0.00 | 0.00 | 80 | 1014.8 |
| 20260902005322 | 81 | 263 | 3.0 | 4.0 | 0.00 | 0.00 | 0.00 | 81 | 1014.7 |
| 20260902004822 | 81 | 208 | 2.0 | 4.0 | 0.00 | 0.00 | 0.00 | 81 | 1014.7 |
| 20260902004322 | 81 | 210 | 1.0 | 4.0 | 0.00 | 0.00 | 0.00 | 82 | 1014.8 |
| 20260902003822 | 81 | 219 | 3.0 | 4.0 | 0.00 | 0.00 | 0.00 | 82 | 1014.8 |
| 20260902003322 | 81 | 209 | 1.0 | 4.0 | 0.00 | 0.00 | 0.00 | 82 | 1014.7 |
| 20260902002821 | 81 | 206 | 2.0 | 3.0 | 0.00 | 0.00 | 0.00 | 83 | 1014.8 |
| 20260902001321 | 81 | 192 | 2.0 | 3.0 | 0.00 | 0.00 | 0.00 | 83 | 1015.0 |
| 20260902000322 | 82 | 192 | 1.0 | 2.0 | 0.00 | 0.00 | 0.00 | 84 | 1015.0 |
| 20260901235820 | 83 | 192 | 0.0 | 3.0 | 0.00 | 0.00 | 0.00 | 83 | 1015.0 |
| 20260901235320 | 83 | 192 | 0.0 | 3.0 | 0.00 | 0.00 | 0.00 | 81 | 1015.0 |
| 20260901234820 | 84 | 211 | 2.0 | 3.0 | 0.00 | 0.00 | 0.00 | 80 | 1015.0 |
| 20260901234320 | 84 | 211 | 1.0 | 3.0 | 0.00 | 0.00 | 0.00 | 79 | 1015.1 |
| 20260901233820 | 85 | 207 | 1.0 | 3.0 | 0.00 | 0.00 | 0.00 | 77 | 1015.1 |
| 20260901233350 | 85 | 198 | 2.0 | 3.0 | 0.00 | 0.00 | 0.00 | 77 | 1015.3 |
| 20260901232849 | 86 | 199 | 2.0 | 3.0 | 0.00 | 0.00 | 0.00 | 76 | 1015.6 |
| 20260901231349 | 87 | 198 | 0.0 | 4.0 | 0.00 | 0.00 | 0.00 | 72 | 1015.3 |
| 20260901230849 | 87 | 200 | 2.0 | 5.0 | 0.00 | 0.00 | 0.00 | 71 | 1015.3 |
| 20260901230349 | 88 | 207 | 0.0 | 5.0 | 0.00 | 0.00 | 0.00 | 70 | 1015.4 |
| 20260901225349 | 88 | 210 | 4.0 | 7.0 | 0.00 | 0.00 | 0.00 | 70 | 1015.4 |
| 20260901224848 | 89 | 233 | 5.0 | 7.0 | 0.00 | 0.00 | 0.00 | 70 | 1015.5 |
| 20260901223848 | 89 | 231 | 3.0 | 7.0 | 0.00 | 0.00 | 0.00 | 70 | 1015.4 |
| 20260901222848 | 89 | 211 | 3.0 | 9.0 | 0.00 | 0.00 | 0.00 | 68 | 1015.1 |
| 20260901222348 | 90 | 239 | 4.0 | 7.0 | 0.00 | 0.00 | 0.00 | 68 | 1015.1 |
| 20260901221847 | 89 | 215 | 4.0 | 7.0 | 0.00 | 0.00 | 0.00 | 66 | 1015.1 |
| 20260901221347 | 89 | 209 | 5.0 | 9.0 | 0.00 | 0.00 | 0.00 | 67 | 1015.2 |
| 20260901220847 | 90 | 207 | 4.0 | 9.0 | 0.00 | 0.00 | 0.00 | 67 | 1015.3 |
| 20260901220347 | 90 | 196 | 6.0 | 10.0 | 0.00 | 0.00 | 0.00 | 67 | 1015.3 |
| 20260901215847 | 90 | 209 | 4.0 | 10.0 | 0.00 | 0.00 | 0.00 | 66 | 1015.3 |
| 20260901215346 | 90 | 201 | 2.0 | 9.0 | 0.00 | 0.00 | 0.00 | 66 | 1015.3 |
| 20260901214846 | 90 | 220 | 9.0 | 9.0 | 0.00 | 0.00 | 0.00 | 66 | 1015.4 |
| 20260901214347 | 90 | 225 | 1.0 | 7.0 | 0.00 | 0.00 | 0.00 | 66 | 1015.3 |
| 20260901213846 | 90 | 211 | 2.0 | 9.0 | 0.00 | 0.00 | 0.00 | 66 | 1015.3 |
| 20260901213347 | 90 | 229 | 4.0 | 9.0 | 0.00 | 0.00 | 0.00 | 64 | 1015.3 |
| 20260901212846 | 91 | 157 | 2.0 | 9.0 | 0.00 | 0.00 | 0.00 | 62 | 1015.4 |
| 20260901211345 | 90 | 228 | 5.0 | 11.0 | 0.00 | 0.00 | 0.00 | 64 | 1015.5 |
| 20260901210845 | 90 | 221 | 3.0 | 7.0 | 0.00 | 0.00 | 0.00 | 64 | 1015.5 |
| 20260901205345 | 90 | 250 | 4.0 | 10.0 | 0.00 | 0.00 | 0.00 | 65 | 1015.5 |
| 20260901204844 | 91 | 202 | 4.0 | 10.0 | 0.00 | 0.00 | 0.00 | 63 | 1015.6 |
| 20260901203844 | 91 | 189 | 4.0 | 12.0 | 0.00 | 0.00 | 0.00 | 62 | 1015.6 |
| 20260901203344 | 92 | 273 | 5.0 | 10.0 | 0.00 | 0.00 | 0.00 | 62 | 1015.5 |
| 20260901202844 | 91 | 211 | 6.0 | 10.0 | 0.00 | 0.00 | 0.00 | 62 | 1015.6 |
| 20260901201843 | 91 | 187 | 5.0 | 13.0 | 0.00 | 0.00 | 0.00 | 63 | 1015.6 |
| 20260901201343 | 91 | 192 | 6.0 | 13.0 | 0.00 | 0.00 | 0.00 | 63 | 1015.6 |
| 20260901200843 | 91 | 214 | 4.0 | 12.0 | 0.00 | 0.00 | 0.00 | 65 | 1015.6 |
| 20260901200343 | 91 | 220 | 4.0 | 12.0 | 0.00 | 0.00 | 0.00 | 65 | 1015.7 |
| 20260901195343 | 91 | 209 | 5.0 | 14.0 | 0.00 | 0.00 | 0.00 | 64 | 1015.7 |
| 20260901194342 | 92 | 217 | 11.0 | 13.0 | 0.00 | 0.00 | 0.00 | 63 | 1015.8 |
| 20260901193843 | 92 | 188 | 6.0 | 12.0 | 0.00 | 0.00 | 0.00 | 64 | 1015.8 |
| 20260901193342 | 91 | 179 | 4.0 | 12.0 | 0.00 | 0.00 | 0.00 | 64 | 1015.9 |
| 20260901192842 | 91 | 240 | 5.0 | 11.0 | 0.00 | 0.00 | 0.00 | 63 | 1015.7 |
| 20260901192342 | 92 | 194 | 4.0 | 10.0 | 0.00 | 0.00 | 0.00 | 64 | 1015.8 |
| 20260901191842 | 91 | 153 | 2.0 | 15.0 | 0.00 | 0.00 | 0.00 | 65 | 1015.8 |
| 20260901191341 | 91 | 185 | 4.0 | 15.0 | 0.00 | 0.00 | 0.00 | 65 | 1016.1 |
| 20260901190341 | 91 | 183 | 6.0 | 14.0 | 0.00 | 0.00 | 0.00 | 65 | 1016.0 |
| 20260901185341 | 91 | 200 | 6.0 | 15.0 | 0.00 | 0.00 | 0.00 | 63 | 1015.9 |
| 20260901184841 | 91 | 185 | 4.0 | 12.0 | 0.00 | 0.00 | 0.00 | 66 | 1015.9 |
| 20260901184340 | 91 | 174 | 2.0 | 15.0 | 0.00 | 0.00 | 0.00 | 65 | 1015.9 |
| 20260901183841 | 91 | 199 | 7.0 | 15.0 | 0.00 | 0.00 | 0.00 | 65 | 1015.9 |
| 20260901183340 | 91 | 184 | 4.0 | 15.0 | 0.00 | 0.00 | 0.00 | 64 | 1016.0 |
| 20260901182840 | 90 | 197 | 4.0 | 15.0 | 0.00 | 0.00 | 0.00 | 65 | 1015.9 |
| 20260901182340 | 90 | 239 | 8.0 | 15.0 | 0.00 | 0.00 | 0.00 | 66 | 1016.0 |
| 20260901181840 | 90 | 211 | 9.0 | 15.0 | 0.00 | 0.00 | 0.00 | 65 | 1016.0 |
| 20260901180839 | 90 | 172 | 3.0 | 13.0 | 0.00 | 0.00 | 0.00 | 66 | 1016.1 |
| 20260901175839 | 90 | 211 | 4.0 | 13.0 | 0.00 | 0.00 | 0.00 | 65 | 1016.4 |
| 20260901175339 | 90 | 213 | 5.0 | 13.0 | 0.00 | 0.00 | 0.00 | 66 | 1016.4 |
| 20260901174839 | 90 | 184 | 11.0 | 13.0 | 0.00 | 0.00 | 0.00 | 67 | 1016.3 |
| 20260901174339 | 90 | 197 | 7.0 | 11.0 | 0.00 | 0.00 | 0.00 | 66 | 1016.3 |
| 20260901173839 | 90 | 176 | 2.0 | 15.0 | 0.00 | 0.00 | 0.00 | 66 | 1016.2 |
| 20260901173338 | 90 | 226 | 2.0 | 15.0 | 0.00 | 0.00 | 0.00 | 67 | 1016.3 |
| 20260901172839 | 90 | 189 | 14.0 | 14.0 | 0.00 | 0.00 | 0.00 | 65 | 1016.3 |
| 20260901171838 | 89 | 184 | 6.0 | 13.0 | 0.00 | 0.00 | 0.00 | 66 | 1016.4 |
| 20260901171338 | 90 | 188 | 7.0 | 13.0 | 0.00 | 0.00 | 0.00 | 67 | 1016.5 |
| 20260901170838 | 89 | 183 | 8.0 | 9.0 | 0.00 | 0.00 | 0.00 | 68 | 1016.6 |
| 20260901170338 | 89 | 202 | 5.0 | 12.0 | 0.00 | 0.00 | 0.00 | 68 | 1016.6 |
| 20260901165837 | 89 | 178 | 3.0 | 12.0 | 0.00 | 0.00 | 0.00 | 67 | 1016.8 |
| 20260901165337 | 89 | 193 | 4.0 | 9.0 | 0.00 | 0.00 | 0.00 | 69 | 1016.9 |
| 20260901164837 | 89 | 229 | 3.0 | 9.0 | 0.00 | 0.00 | 0.00 | 69 | 1017.0 |
| 20260901163837 | 88 | 178 | 7.0 | 7.0 | 0.00 | 0.00 | 0.00 | 69 | 1017.0 |
| 20260901163337 | 88 | 248 | 2.0 | 6.0 | 0.00 | 0.00 | 0.00 | 71 | 1017.0 |
| 20260901162836 | 88 | 179 | 2.0 | 6.0 | 0.00 | 0.00 | 0.00 | 69 | 1017.1 |
| 20260901161836 | 87 | 184 | 3.0 | 7.0 | 0.00 | 0.00 | 0.00 | 70 | 1016.9 |
| 20260901161336 | 87 | 238 | 4.0 | 6.0 | 0.00 | 0.00 | 0.00 | 73 | 1017.0 |
| 20260901160836 | 87 | 187 | 1.0 | 9.0 | 0.00 | 0.00 | 0.00 | 71 | 1017.0 |
| 20260901160336 | 86 | 194 | 1.0 | 9.0 | 0.00 | 0.00 | 0.00 | 72 | 1017.0 |
| 20260901154836 | 86 | 202 | 2.0 | 7.0 | 0.00 | 0.00 | 0.00 | 71 | 1016.9 |
| 20260901154335 | 87 | 187 | 4.0 | 7.0 | 0.00 | 0.00 | 0.00 | 72 | 1017.1 |
| 20260901153835 | 87 | 205 | 2.0 | 6.0 | 0.00 | 0.00 | 0.00 | 72 | 1017.2 |
| 20260901153335 | 86 | 178 | 2.0 | 5.0 | 0.00 | 0.00 | 0.00 | 76 | 1017.2 |
| 20260901152835 | 85 | 188 | 3.0 | 6.0 | 0.00 | 0.00 | 0.00 | 74 | 1017.0 |
| 20260901152335 | 84 | 176 | 1.0 | 9.0 | 0.00 | 0.00 | 0.00 | 74 | 1017.0 |
| 20260901151834 | 85 | 146 | 2.0 | 9.0 | 0.00 | 0.00 | 0.00 | 74 | 1017.1 |
| 20260901151334 | 85 | 182 | 5.0 | 7.0 | 0.00 | 0.00 | 0.00 | 73 | 1017.1 |
| 20260901150834 | 85 | 173 | 3.0 | 7.0 | 0.00 | 0.00 | 0.00 | 76 | 1017.1 |
| 20260901150334 | 85 | 164 | 3.0 | 10.0 | 0.00 | 0.00 | 0.00 | 75 | 1017.1 |
| 20260901145834 | 84 | 196 | 1.0 | 10.0 | 0.00 | 0.00 | 0.00 | 75 | 1017.1 |
| 20260901145333 | 83 | 237 | 4.0 | 9.0 | 0.00 | 0.00 | 0.00 | 76 | 1017.0 |
| 20260901144833 | 83 | 186 | 3.0 | 9.0 | 0.00 | 0.00 | 0.00 | 76 | 1017.0 |
| 20260901144333 | 82 | 225 | 5.0 | 6.0 | 0.00 | 0.00 | 0.00 | 78 | 1016.9 |
| 20260901143833 | 82 | 207 | 1.0 | 6.0 | 0.00 | 0.00 | 0.00 | 77 | 1017.0 |
| 20260901143333 | 82 | 287 | 1.0 | 6.0 | 0.00 | 0.00 | 0.00 | 79 | 1017.0 |
| 20260901142833 | 81 | 187 | 2.0 | 5.0 | 0.00 | 0.00 | 0.00 | 79 | 1016.9 |
| 20260901142333 | 81 | 204 | 2.0 | 4.0 | 0.00 | 0.00 | 0.00 | 80 | 1016.9 |
| 20260901141832 | 81 | 264 | 2.0 | 4.0 | 0.00 | 0.00 | 0.00 | 80 | 1017.0 |
| 20260901141332 | 81 | 201 | 1.0 | 5.0 | 0.00 | 0.00 | 0.00 | 80 | 1017.0 |
| 20260901140832 | 81 | 183 | 2.0 | 6.0 | 0.00 | 0.00 | 0.00 | 80 | 1017.1 |
| 20260901134832 | 80 | 182 | 3.0 | 7.0 | 0.00 | 0.00 | 0.00 | 81 | 1016.8 |
| 20260901134332 | 79 | 202 | 2.0 | 10.0 | 0.00 | 0.00 | 0.00 | 82 | 1016.8 |
| 20260901133831 | 79 | 234 | 4.0 | 10.0 | 0.00 | 0.00 | 0.00 | 83 | 1016.8 |
| 20260901133331 | 79 | 198 | 1.0 | 6.0 | 0.00 | 0.00 | 0.00 | 83 | 1016.9 |
| 20260901132831 | 78 | 200 | 3.0 | 4.0 | 0.00 | 0.00 | 0.00 | 84 | 1016.8 |
| 20260901132331 | 77 | 190 | 3.0 | 5.0 | 0.00 | 0.00 | 0.00 | 85 | 1016.9 |
| 20260901131831 | 77 | 217 | 3.0 | 6.0 | 0.00 | 0.00 | 0.00 | 85 | 1016.8 |
| 20260901130330 | 76 | 183 | 2.0 | 7.0 | 0.00 | 0.00 | 0.00 | 86 | 1016.9 |
| 20260901125830 | 76 | 186 | 2.0 | 5.0 | 0.00 | 0.00 | 0.00 | 86 | 1017.0 |
| 20260901124830 | 76 | 200 | 1.0 | 5.0 | 0.00 | 0.00 | 0.00 | 87 | 1017.1 |
| 20260901124329 | 76 | 233 | 1.0 | 6.0 | 0.00 | 0.00 | 0.00 | 87 | 1017.1 |
| 20260901123830 | 75 | 196 | 3.0 | 6.0 | 0.00 | 0.00 | 0.00 | 87 | 1017.1 |
| 20260901122829 | 75 | 189 | 0.0 | 4.0 | 0.00 | 0.00 | 0.00 | 88 | 1017.0 |
| 20260901121829 | 74 | 189 | 3.0 | 3.0 | 0.00 | 0.00 | 0.00 | 89 | 1016.9 |
| 20260901121329 | 74 | 189 | 1.0 | 1.0 | 0.00 | 0.00 | 0.00 | 89 | 1016.9 |
| 20260901120828 | 74 | 189 | 0.0 | 2.0 | 0.00 | 0.00 | 0.00 | 89 | 1016.9 |
| 20260901120328 | 74 | 189 | 0.0 | 2.0 | 0.00 | 0.00 | 0.00 | 89 | 1016.9 |
| 20260901115828 | 73 | 189 | 0.0 | 2.0 | 0.00 | 0.00 | 0.00 | 90 | 1016.7 |
| 20260901115328 | 73 | 189 | 0.0 | 2.0 | 0.00 | 0.00 | 0.00 | 90 | 1016.8 |
| 20260901114828 | 73 | 189 | 2.0 | 2.0 | 0.00 | 0.00 | 0.00 | 90 | 1016.8 |
| 20260901114328 | 73 | 189 | 0.0 | 2.0 | 0.00 | 0.00 | 0.00 | 90 | 1016.7 |
| 20260901113827 | 73 | 189 | 0.0 | 2.0 | 0.00 | 0.00 | 0.00 | 90 | 1016.7 |
| 20260901113327 | 73 | 189 | 2.0 | 2.0 | 0.00 | 0.00 | 0.00 | 90 | 1016.5 |
| 20260901112827 | 72 | 189 | 0.0 | 2.0 | 0.00 | 0.00 | 0.00 | 90 | 1016.4 |
| 20260901112327 | 72 | 189 | 0.0 | 2.0 | 0.00 | 0.00 | 0.00 | 91 | 1016.3 |
| 20260901111327 | 71 | 189 | 0.0 | 0.0 | 0.00 | 0.00 | 0.00 | 92 | 1016.3 |
| 20260901110827 | 71 | 189 | 0.0 | 0.0 | 0.00 | 0.00 | 0.00 | 91 | 1016.3 |
| 20260901110326 | 71 | 189 | 0.0 | 1.0 | 0.00 | 0.00 | 0.00 | 92 | 1016.3 |
| 20260901105827 | 71 | 189 | 0.0 | 1.0 | 0.00 | 0.00 | 0.00 | 92 | 1016.3 |
| 20260901105326 | 71 | 189 | 0.0 | 0.0 | 0.00 | 0.00 | 0.00 | 91 | 1016.3 |
| 20260901104326 | 71 | 189 | 0.0 | 0.0 | 0.00 | 0.00 | 0.00 | 90 | 1016.3 |
| 20260901103326 | 73 | 189 | 0.0 | 3.0 | 0.00 | 0.00 | 0.00 | 90 | 1016.2 |
| 20260901102825 | 73 | 189 | 0.0 | 3.0 | 0.00 | 0.00 | 0.00 | 89 | 1016.1 |
| 20260901102325 | 73 | 189 | 0.0 | 2.0 | 0.00 | 0.00 | 0.00 | 89 | 1016.0 |
| 20260901100324 | 73 | 189 | 0.0 | 2.0 | 0.00 | 0.00 | 0.00 | 89 | 1015.8 |
| 20260901095324 | 73 | 189 | 0.0 | 3.0 | 0.00 | 0.00 | 0.00 | 89 | 1016.1 |
| 20260901094824 | 73 | 189 | 1.0 | 3.0 | 0.00 | 0.00 | 0.00 | 89 | 1016.0 |
| 20260901094325 | 74 | 189 | 0.0 | 3.0 | 0.00 | 0.00 | 0.00 | 89 | 1016.1 |
| 20260901093824 | 74 | 189 | 0.0 | 3.0 | 0.00 | 0.00 | 0.00 | 89 | 1016.1 |
| 20260901093324 | 74 | 189 | 0.0 | 3.0 | 0.00 | 0.00 | 0.00 | 89 | 1016.0 |
| 20260901092824 | 74 | 189 | 0.0 | 3.0 | 0.00 | 0.00 | 0.00 | 89 | 1016.1 |
| 20260901092324 | 74 | 189 | 0.0 | 3.0 | 0.00 | 0.00 | 0.00 | 89 | 1016.1 |
| 20260901091823 | 73 | 189 | 0.0 | 3.0 | 0.00 | 0.00 | 0.00 | 89 | 1016.0 |
| 20260901091323 | 73 | 189 | 2.0 | 3.0 | 0.00 | 0.00 | 0.00 | 89 | 1016.0 |
| 20260901090823 | 73 | 189 | 0.0 | 3.0 | 0.00 | 0.00 | 0.00 | 89 | 1016.0 |
| 20260901090323 | 73 | 189 | 0.0 | 3.0 | 0.00 | 0.00 | 0.00 | 89 | 1016.0 |
| 20260901085823 | 73 | 189 | 0.0 | 0.0 | 0.00 | 0.00 | 0.00 | 89 | 1015.8 |
| 20260901085323 | 73 | 189 | 0.0 | 0.0 | 0.00 | 0.00 | 0.00 | 89 | 1015.9 |
| 20260901084822 | 73 | 189 | 0.0 | 3.0 | 0.00 | 0.00 | 0.00 | 89 | 1015.9 |
| 20260901084322 | 74 | 189 | 0.0 | 3.0 | 0.00 | 0.00 | 0.00 | 89 | 1015.8 |
| 20260901083322 | 74 | 189 | 0.0 | 2.0 | 0.00 | 0.00 | 0.00 | 88 | 1015.8 |
| 20260901082322 | 74 | 189 | 0.0 | 0.0 | 0.00 | 0.00 | 0.00 | 88 | 1015.8 |
| 20260901081821 | 74 | 189 | 0.0 | 0.0 | 0.00 | 0.00 | 0.00 | 88 | 1015.8 |
| 20260901081321 | 74 | 189 | 0.0 | 0.0 | 0.00 | 0.00 | 0.00 | 88 | 1015.8 |
| 20260901080821 | 74 | 189 | 0.0 | 4.0 | 0.00 | 0.00 | 0.00 | 88 | 1015.8 |
| 20260901080322 | 74 | 189 | 0.0 | 5.0 | 0.00 | 0.00 | 0.00 | 89 | 1015.8 |
| 20260901075821 | 74 | 254 | 1.0 | 5.0 | 0.00 | 0.00 | 0.00 | 89 | 1015.6 |
| 20260901075321 | 74 | 238 | 0.0 | 3.0 | 0.00 | 0.00 | 0.00 | 89 | 1015.8 |
| 20260901074820 | 74 | 237 | 0.0 | 3.0 | 0.00 | 0.00 | 0.00 | 89 | 1015.7 |
| 20260901074320 | 74 | 205 | 1.0 | 3.0 | 0.00 | 0.00 | 0.00 | 90 | 1015.7 |
| 20260901073820 | 74 | 205 | 0.0 | 4.0 | 0.00 | 0.00 | 0.00 | 90 | 1015.7 |
| 20260901072820 | 74 | 210 | 3.0 | 4.0 | 0.00 | 0.00 | 0.00 | 91 | 1015.6 |
| 20260901072320 | 73 | 201 | 2.0 | 4.0 | 0.00 | 0.00 | 0.00 | 91 | 1015.5 |
| 20260901071820 | 73 | 207 | 2.0 | 3.0 | 0.00 | 0.00 | 0.00 | 92 | 1015.6 |
| 20260901071320 | 72 | 207 | 0.0 | 2.0 | 0.00 | 0.00 | 0.00 | 92 | 1015.6 |
| 20260901070819 | 72 | 207 | 0.0 | 1.0 | 0.00 | 0.00 | 0.00 | 92 | 1015.7 |
| 20260901070349 | 72 | 207 | 0.0 | 0.0 | 0.00 | 0.00 | 0.00 | 92 | 1015.7 |
| 20260901065849 | 72 | 207 | 0.0 | 0.0 | 0.00 | 0.00 | 0.00 | 91 | 1015.8 |
| 20260901065349 | 73 | 207 | 0.0 | 0.0 | 0.00 | 0.00 | 0.00 | 91 | 1015.8 |
| 20260901064849 | 73 | 207 | 0.0 | 1.0 | 0.00 | 0.00 | 0.00 | 91 | 1015.9 |
| 20260901064349 | 73 | 207 | 0.0 | 2.0 | 0.00 | 0.00 | 0.00 | 92 | 1015.8 |
| 20260901063348 | 73 | 207 | 0.0 | 0.0 | 0.00 | 0.00 | 0.00 | 92 | 1015.9 |
| 20260901062848 | 73 | 207 | 0.0 | 1.0 | 0.00 | 0.00 | 0.00 | 91 | 1015.8 |
| 20260901062349 | 73 | 207 | 0.0 | 1.0 | 0.00 | 0.00 | 0.00 | 91 | 1015.7 |
| 20260901061848 | 73 | 207 | 0.0 | 0.0 | 0.00 | 0.00 | 0.00 | 90 | 1015.9 |
| 20260901061318 | 74 | 207 | 0.0 | 0.0 | 0.00 | 0.00 | 0.00 | 89 | 1016.0 |
| 20260901060847 | 74 | 207 | 0.0 | 0.0 | 0.00 | 0.00 | 0.00 | 88 | 1016.1 |
| 20260901055847 | 75 | 207 | 0.0 | 1.0 | 0.00 | 0.00 | 0.00 | 87 | 1016.0 |
| 20260901055347 | 76 | 207 | 0.0 | 2.0 | 0.00 | 0.00 | 0.00 | 86 | 1016.1 |
| 20260901054346 | 77 | 207 | 0.0 | 4.0 | 0.00 | 0.00 | 0.00 | 85 | 1015.9 |
| 20260901053846 | 77 | 207 | 0.0 | 4.0 | 0.00 | 0.00 | 0.00 | 85 | 1015.9 |
| 20260901053346 | 77 | 242 | 1.0 | 5.0 | 0.00 | 0.00 | 0.00 | 85 | 1015.8 |
| 20260901052846 | 77 | 226 | 4.0 | 6.0 | 0.00 | 0.00 | 0.00 | 84 | 1015.6 |
| 20260901052346 | 78 | 198 | 3.0 | 6.0 | 0.00 | 0.00 | 0.00 | 84 | 1015.7 |
| 20260901051846 | 78 | 184 | 4.0 | 6.0 | 0.00 | 0.00 | 0.00 | 84 | 1015.6 |
| 20260901051346 | 78 | 202 | 2.0 | 6.0 | 0.00 | 0.00 | 0.00 | 84 | 1015.6 |
| 20260901050846 | 78 | 202 | 3.0 | 10.0 | 0.00 | 0.00 | 0.00 | 83 | 1015.4 |
| 20260901050345 | 78 | 177 | 1.0 | 10.0 | 0.00 | 0.00 | 0.00 | 83 | 1015.5 |
| 20260901045845 | 78 | 231 | 3.0 | 10.0 | 0.00 | 0.00 | 0.00 | 83 | 1015.6 |
| 20260901045345 | 78 | 196 | 2.0 | 11.0 | 0.00 | 0.00 | 0.00 | 83 | 1015.3 |
| 20260901044845 | 78 | 207 | 4.0 | 11.0 | 0.00 | 0.00 | 0.00 | 83 | 1015.3 |
| 20260901044345 | 78 | 225 | 8.0 | 10.0 | 0.00 | 0.00 | 0.00 | 83 | 1015.6 |
| 20260901043845 | 78 | 207 | 4.0 | 12.0 | 0.00 | 0.00 | 0.00 | 83 | 1015.5 |
| 20260901043345 | 78 | 215 | 6.0 | 12.0 | 0.00 | 0.00 | 0.00 | 83 | 1015.7 |
| 20260901042344 | 78 | 210 | 4.0 | 6.0 | 0.00 | 0.00 | 0.00 | 83 | 1016.0 |
| 20260901041844 | 78 | 205 | 3.0 | 6.0 | 0.00 | 0.00 | 0.00 | 82 | 1016.0 |
| 20260901041344 | 78 | 184 | 2.0 | 7.0 | 0.00 | 0.00 | 0.00 | 83 | 1016.0 |
| 20260901040844 | 78 | 186 | 3.0 | 7.0 | 0.00 | 0.00 | 0.00 | 83 | 1016.0 |
| 20260901040343 | 78 | 247 | 3.0 | 7.0 | 0.00 | 0.00 | 0.00 | 83 | 1015.9 |
| 20260901035843 | 78 | 180 | 3.0 | 10.0 | 0.00 | 0.00 | 0.00 | 82 | 1016.0 |
| 20260901035343 | 79 | 194 | 0.0 | 10.0 | 0.00 | 0.00 | 0.00 | 82 | 1016.1 |
| 20260901034843 | 78 | 207 | 6.0 | 9.0 | 0.00 | 0.00 | 0.00 | 83 | 1015.9 |
| 20260901034343 | 78 | 257 | 3.0 | 11.0 | 0.00 | 0.00 | 0.00 | 83 | 1015.7 |
| 20260901033843 | 78 | 196 | 7.0 | 11.0 | 0.00 | 0.00 | 0.00 | 83 | 1015.7 |
| 20260901033343 | 78 | 205 | 6.0 | 9.0 | 0.00 | 0.00 | 0.00 | 84 | 1015.9 |
| 20260901032843 | 78 | 228 | 6.0 | 8.0 | 0.00 | 0.00 | 0.00 | 84 | 1016.1 |
| 20260901032342 | 78 | 201 | 5.0 | 6.0 | 0.00 | 0.00 | 0.00 | 84 | 1016.2 |
| 20260901031842 | 77 | 217 | 4.0 | 6.0 | 0.00 | 0.00 | 0.00 | 84 | 1016.2 |